RYE06 KDTW-KLAS

Flight info

Callsign RYE06
Flight time 2h 20m
Altitude 38000
Route KAYLN3 SMUUV OBK IOW J60 HVE GGAPP CHOWW4
Aircraft BBJ2/M-SDE2E3FGHIRWXY/LB1

Departure

Time 2026-05-07 07:12
Airport Detroit Metropolitan Wayne County Airport (KDTW)

Arrival

Time 2026-05-07 09:33
Airport Harry Reid International Airport (KLAS)
Time Latitude Longitude Altitude Speed Heading
2026-05-07 06:43 42.21993 -83.34901 648 ft 0 kts 360°
2026-05-07 07:07 42.21994 -83.34900 648 ft 1 kts
2026-05-07 07:07 42.22001 -83.34889 651 ft 2 kts 64°
2026-05-07 07:07 42.21995 -83.34863 651 ft 4 kts 111°
2026-05-07 07:08 42.21968 -83.34782 648 ft 15 kts 123°
2026-05-07 07:08 42.21901 -83.34670 648 ft 15 kts 146°
2026-05-07 07:08 42.21841 -83.34573 648 ft 14 kts 92°
2026-05-07 07:08 42.21902 -83.34470 650 ft 17 kts 31°
2026-05-07 07:09 42.22021 -83.34382 649 ft 20 kts 28°
2026-05-07 07:09 42.22143 -83.34292 647 ft 20 kts 30°
2026-05-07 07:09 42.22260 -83.34204 647 ft 19 kts 28°
2026-05-07 07:09 42.22375 -83.34121 647 ft 18 kts 28°
2026-05-07 07:10 42.22485 -83.34039 648 ft 18 kts 29°
2026-05-07 07:10 42.22600 -83.33953 648 ft 20 kts 28°
2026-05-07 07:10 42.22726 -83.33861 649 ft 20 kts 28°
2026-05-07 07:10 42.22842 -83.33764 647 ft 19 kts 57°
2026-05-07 07:11 42.22777 -83.33663 644 ft 18 kts 195°
2026-05-07 07:11 42.22744 -83.33682 648 ft 2 kts 209°
2026-05-07 07:11 42.22516 -83.33853 647 ft 77 kts 208°
2026-05-07 07:11 42.21819 -83.34366 647 ft 147 kts 208°
2026-05-07 07:12 42.20808 -83.35088 1061 ft 170 kts 210°
2026-05-07 07:12 42.19764 -83.35857 1918 ft 171 kts 212°
2026-05-07 07:12 42.18854 -83.36898 2725 ft 177 kts 232°
2026-05-07 07:12 42.18048 -83.38313 2993 ft 205 kts 234°
2026-05-07 07:13 42.17128 -83.39963 3256 ft 233 kts 236°
2026-05-07 07:13 42.16171 -83.41819 3796 ft 247 kts 237°
2026-05-07 07:13 42.15171 -83.43729 4501 ft 252 kts 236°
2026-05-07 07:13 42.14139 -83.45652 5286 ft 253 kts 236°
2026-05-07 07:14 42.13093 -83.47569 6092 ft 255 kts 235°
2026-05-07 07:14 42.12036 -83.49489 6677 ft 256 kts 235°
2026-05-07 07:14 42.10969 -83.51418 6967 ft 257 kts 235°
2026-05-07 07:14 42.09898 -83.53341 6987 ft 257 kts 235°
2026-05-07 07:15 42.08833 -83.55243 6985 ft 258 kts 235°
2026-05-07 07:15 42.07737 -83.57201 6998 ft 259 kts 235°
2026-05-07 07:15 42.06682 -83.59123 6992 ft 259 kts 240°
2026-05-07 07:15 42.06117 -83.61382 6996 ft 256 kts 266°
2026-05-07 07:16 42.06325 -83.63764 7128 ft 261 kts 287°
2026-05-07 07:16 42.07162 -83.65947 7937 ft 264 kts 301°
2026-05-07 07:16 42.08233 -83.67961 8630 ft 265 kts 304°
2026-05-07 07:16 42.09339 -83.69933 8953 ft 264 kts 304°
2026-05-07 07:17 42.10454 -83.71936 8980 ft 269 kts 303°
2026-05-07 07:17 42.11566 -83.73954 8992 ft 268 kts 303°
2026-05-07 07:17 42.12676 -83.75994 9290 ft 273 kts 303°
2026-05-07 07:17 42.13788 -83.78053 10222 ft 270 kts 303°
2026-05-07 07:18 42.14907 -83.80160 10702 ft 287 kts 302°
2026-05-07 07:18 42.16130 -83.82435 10904 ft 311 kts 302°
2026-05-07 07:18 42.17437 -83.84854 11325 ft 325 kts 303°
2026-05-07 07:18 42.18779 -83.87338 12041 ft 329 kts 302°
2026-05-07 07:19 42.20121 -83.89833 12925 ft 329 kts 302°
2026-05-07 07:19 42.21463 -83.92331 13760 ft 330 kts 302°
2026-05-07 07:19 42.22816 -83.94855 14556 ft 333 kts 301°
2026-05-07 07:19 42.24176 -83.97397 15335 ft 336 kts 301°
2026-05-07 07:20 42.25548 -83.99963 16142 ft 338 kts 300°
2026-05-07 07:20 42.26922 -84.02534 16916 ft 340 kts 300°
2026-05-07 07:20 42.28310 -84.05135 17633 ft 343 kts 300°
2026-05-07 07:20 42.29706 -84.07754 18370 ft 344 kts 299°
2026-05-07 07:21 42.31112 -84.10392 19058 ft 347 kts 299°
2026-05-07 07:21 42.33306 -84.14513 20169 ft 349 kts 298°
2026-05-07 07:21 42.36157 -84.19878 21426 ft 353 kts 298°
2026-05-07 07:21 42.39034 -84.25298 22652 ft 356 kts 297°
2026-05-07 07:22 42.41560 -84.30072 23690 ft 357 kts 296°
2026-05-07 07:22 42.42658 -84.33009 24275 ft 346 kts 284°
2026-05-07 07:22 42.43220 -84.36131 24862 ft 339 kts 273°
2026-05-07 07:22 42.43390 -84.40108 25444 ft 341 kts 269°
2026-05-07 07:23 42.43504 -84.46580 26336 ft 346 kts 269°
2026-05-07 07:23 42.43645 -84.53107 27179 ft 349 kts 269°
2026-05-07 07:23 42.43811 -84.59717 27968 ft 353 kts 269°
2026-05-07 07:23 42.43930 -84.64468 28501 ft 356 kts 268°
2026-05-07 07:24 42.44094 -84.71187 29228 ft 358 kts 268°
2026-05-07 07:24 42.44254 -84.77882 30204 ft 353 kts 268°
2026-05-07 07:24 42.44409 -84.84535 31063 ft 351 kts 268°
2026-05-07 07:24 42.44559 -84.91152 31685 ft 354 kts 268°
2026-05-07 07:25 42.44805 -85.02452 32873 ft 353 kts 268°
2026-05-07 07:25 42.44943 -85.09193 33494 ft 354 kts 268°
2026-05-07 07:25 42.45077 -85.15857 34145 ft 353 kts 268°
2026-05-07 07:26 42.45208 -85.22514 34710 ft 355 kts 268°
2026-05-07 07:26 42.45335 -85.29204 35239 ft 356 kts 268°
2026-05-07 07:26 42.45457 -85.35819 35744 ft 357 kts 268°
2026-05-07 07:26 42.45578 -85.42556 36233 ft 358 kts 268°
2026-05-07 07:27 42.45678 -85.48375 36569 ft 360 kts 268°
2026-05-07 07:27 42.45736 -85.51769 36849 ft 359 kts 268°
2026-05-07 07:27 42.45793 -85.55127 37291 ft 354 kts 268°
2026-05-07 07:27 42.45848 -85.58441 37624 ft 352 kts 268°
2026-05-07 07:28 42.45901 -85.61767 37758 ft 354 kts 268°
2026-05-07 07:28 42.45953 -85.65110 37865 ft 357 kts 268°
2026-05-07 07:28 42.46005 -85.68479 37976 ft 359 kts 268°
2026-05-07 07:29 42.46191 -85.81095 38013 ft 356 kts 268°
2026-05-07 07:29 42.46375 -85.94452 38017 ft 353 kts 268°
2026-05-07 07:30 42.46542 -86.07672 38012 ft 350 kts 268°
2026-05-07 07:30 42.46316 -86.15763 38035 ft 349 kts 260°
2026-05-07 07:31 42.44667 -86.28253 38038 ft 362 kts 259°
2026-05-07 07:31 42.42901 -86.41777 38019 ft 365 kts 259°
2026-05-07 07:32 42.41176 -86.55119 38016 ft 353 kts 259°
2026-05-07 07:32 42.39485 -86.68087 38036 ft 348 kts 259°
2026-05-07 07:33 42.37768 -86.81143 38049 ft 358 kts 259°
2026-05-07 07:33 42.35977 -86.94636 38048 ft 369 kts 259°
2026-05-07 07:34 42.34164 -87.08176 38028 ft 365 kts 259°
2026-05-07 07:34 42.32367 -87.21464 38037 ft 354 kts 259°
2026-05-07 07:35 42.30592 -87.34470 38070 ft 352 kts 259°
2026-05-07 07:35 42.28776 -87.47659 38065 ft 363 kts 259°
2026-05-07 07:36 42.26898 -87.61184 38049 ft 367 kts 259°
2026-05-07 07:36 42.25044 -87.74411 38041 ft 355 kts 259°
2026-05-07 07:37 42.23510 -87.85280 38049 ft 347 kts 258°
2026-05-07 07:37 42.22006 -87.95838 38066 ft 351 kts 258°
2026-05-07 07:38 42.19867 -88.08158 38075 ft 364 kts 256°
2026-05-07 07:38 42.17489 -88.21529 38049 ft 364 kts 257°
2026-05-07 07:39 42.15181 -88.34536 38044 ft 350 kts 256°
2026-05-07 07:39 42.12916 -88.47238 38071 ft 349 kts 256°
2026-05-07 07:40 42.10592 -88.60184 38087 ft 362 kts 256°
2026-05-07 07:40 42.08176 -88.73544 38071 ft 370 kts 256°
2026-05-07 07:41 42.05744 -88.86896 38061 ft 361 kts 256°
2026-05-07 07:41 42.03372 -88.99836 38067 ft 354 kts 256°
2026-05-07 07:42 42.00984 -89.12765 38085 ft 361 kts 256°
2026-05-07 07:42 41.98507 -89.26082 38090 ft 371 kts 256°
2026-05-07 07:43 41.96023 -89.39361 38059 ft 358 kts 256°
2026-05-07 07:43 41.93633 -89.52041 38087 ft 347 kts 256°
2026-05-07 07:44 41.91213 -89.64787 38093 ft 359 kts 256°
2026-05-07 07:44 41.88703 -89.77933 38097 ft 371 kts 256°
2026-05-07 07:45 41.86133 -89.91288 38070 ft 366 kts 256°
2026-05-07 07:45 41.83621 -90.04266 38076 ft 354 kts 256°
2026-05-07 07:46 41.81131 -90.17047 38096 ft 356 kts 256°
2026-05-07 07:46 41.78572 -90.30094 38095 ft 367 kts 256°
2026-05-07 07:47 41.75944 -90.43397 38074 ft 368 kts 256°
2026-05-07 07:47 41.73361 -90.56393 38072 ft 354 kts 256°
2026-05-07 07:48 41.70838 -90.69000 38092 ft 349 kts 255°
2026-05-07 07:48 41.68286 -90.81691 38097 ft 359 kts 255°
2026-05-07 07:49 41.65637 -90.94765 38082 ft 366 kts 255°
2026-05-07 07:49 41.62981 -91.07795 38068 ft 357 kts 255°
2026-05-07 07:50 41.60390 -91.20424 38077 ft 350 kts 255°
2026-05-07 07:50 41.57788 -91.33037 38082 ft 357 kts 255°
2026-05-07 07:51 41.55087 -91.46048 38092 ft 369 kts 255°
2026-05-07 07:51 41.52366 -91.59072 38079 ft 368 kts 255°
2026-05-07 07:52 41.51379 -91.66429 38071 ft 359 kts 262°
2026-05-07 07:52 41.50178 -91.79553 38069 ft 355 kts 262°
2026-05-07 07:53 41.48931 -91.92729 38079 ft 363 kts 262°
2026-05-07 07:53 41.47621 -92.06297 38066 ft 374 kts 262°
2026-05-07 07:54 41.46290 -92.19931 38042 ft 371 kts 262°
2026-05-07 07:54 41.44967 -92.33330 38049 ft 359 kts 262°
2026-05-07 07:55 41.43659 -92.46421 38062 ft 356 kts 262°
2026-05-07 07:55 41.42509 -92.57785 38076 ft 367 kts 261°
2026-05-07 07:56 41.41117 -92.71403 38048 ft 372 kts 261°
2026-05-07 07:56 41.39727 -92.84889 38038 ft 358 kts 261°
2026-05-07 07:57 41.38368 -92.97883 38058 ft 353 kts 261°
2026-05-07 07:57 41.36986 -93.10942 38068 ft 362 kts 261°
2026-05-07 07:58 41.35545 -93.24421 38050 ft 371 kts 261°
2026-05-07 07:58 41.34083 -93.37950 38035 ft 365 kts 261°
2026-05-07 07:59 41.32648 -93.51097 38038 ft 355 kts 261°
2026-05-07 07:59 41.31203 -93.64158 38058 ft 361 kts 261°
2026-05-07 08:00 41.29700 -93.77621 38054 ft 373 kts 261°
2026-05-07 08:00 41.28156 -93.91290 38034 ft 371 kts 261°
2026-05-07 08:01 41.26640 -94.04592 38037 ft 358 kts 261°
2026-05-07 08:01 41.25135 -94.17633 38049 ft 362 kts 261°
2026-05-07 08:02 41.23568 -94.31078 38047 ft 374 kts 261°
2026-05-07 08:02 41.21953 -94.44792 38025 ft 374 kts 261°
2026-05-07 08:03 41.20358 -94.58194 38030 ft 361 kts 261°
2026-05-07 08:03 41.18787 -94.71268 38045 ft 358 kts 261°
2026-05-07 08:04 41.17181 -94.84497 38042 ft 369 kts 261°
2026-05-07 08:04 41.15513 -94.98112 38025 ft 376 kts 261°
2026-05-07 08:05 41.13833 -95.11669 38021 ft 366 kts 261°
2026-05-07 08:05 41.12188 -95.24836 38021 ft 359 kts 261°
2026-05-07 08:06 41.10528 -95.37975 38039 ft 366 kts 261°
2026-05-07 08:06 41.08813 -95.51433 38035 ft 378 kts 261°
2026-05-07 08:07 41.07042 -95.65186 38004 ft 376 kts 261°
2026-05-07 08:07 41.05303 -95.78569 38010 ft 363 kts 261°
2026-05-07 08:08 41.03580 -95.91706 38033 ft 364 kts 261°
2026-05-07 08:08 41.01801 -96.05143 38027 ft 377 kts 261°
2026-05-07 08:09 40.99953 -96.18966 38022 ft 383 kts 261°
2026-05-07 08:09 40.98100 -96.32702 38010 ft 372 kts 261°
2026-05-07 08:10 40.96292 -96.45985 38020 ft 365 kts 261°
2026-05-07 08:10 40.94466 -96.59293 38049 ft 372 kts 261°
2026-05-07 08:11 40.92598 -96.72779 38047 ft 383 kts 261°
2026-05-07 08:11 40.91490 -96.83210 38032 ft 371 kts 264°
2026-05-07 08:12 40.90275 -96.96528 38044 ft 366 kts 264°
2026-05-07 08:12 40.88981 -97.10031 38050 ft 377 kts 264°
2026-05-07 08:13 40.87620 -97.23982 38039 ft 386 kts 263°
2026-05-07 08:13 40.86237 -97.37974 38025 ft 379 kts 263°
2026-05-07 08:14 40.84878 -97.51542 38017 ft 369 kts 263°
2026-05-07 08:14 40.83516 -97.65014 38038 ft 374 kts 263°
2026-05-07 08:15 40.82095 -97.78879 38038 ft 386 kts 263°
2026-05-07 08:15 40.80636 -97.92942 38013 ft 385 kts 263°
2026-05-07 08:16 40.79198 -98.06640 38017 ft 374 kts 263°
2026-05-07 08:16 40.77756 -98.20236 38040 ft 377 kts 263°
2026-05-07 08:17 40.76259 -98.34180 38039 ft 389 kts 263°
2026-05-07 08:17 40.74930 -98.46412 38022 ft 386 kts 263°
2026-05-07 08:18 40.73417 -98.60194 38029 ft 376 kts 264°
2026-05-07 08:18 40.71914 -98.73774 38046 ft 375 kts 264°
2026-05-07 08:19 40.70371 -98.87557 38048 ft 386 kts 264°
2026-05-07 08:19 40.68770 -99.01692 38036 ft 391 kts 264°
2026-05-07 08:20 40.67159 -99.15728 38020 ft 380 kts 264°
2026-05-07 08:20 40.65581 -99.29362 38032 ft 375 kts 264°
2026-05-07 08:21 40.63983 -99.43028 38048 ft 382 kts 264°
2026-05-07 08:21 40.62323 -99.57075 38047 ft 393 kts 264°
2026-05-07 08:22 40.60623 -99.71271 38023 ft 389 kts 264°
2026-05-07 08:22 40.58954 -99.85065 38029 ft 377 kts 264°
2026-05-07 08:23 40.57304 -99.98611 38050 ft 380 kts 264°
2026-05-07 08:23 40.55582 -100.12589 38047 ft 393 kts 264°
2026-05-07 08:24 40.53804 -100.26839 38031 ft 393 kts 264°
2026-05-07 08:24 40.52048 -100.40767 38032 ft 380 kts 264°
2026-05-07 08:25 40.50317 -100.54400 38058 ft 380 kts 264°
2026-05-07 08:25 40.48842 -100.65926 38063 ft 390 kts 264°
2026-05-07 08:26 40.46075 -100.87237 38047 ft 394 kts 264°
2026-05-07 08:26 40.44473 -100.99314 38056 ft 383 kts 264°
2026-05-07 08:27 40.42618 -101.12985 38065 ft 381 kts 264°
2026-05-07 08:27 40.40731 -101.26832 38081 ft 392 kts 264°
2026-05-07 08:28 40.38769 -101.41068 38056 ft 399 kts 264°
2026-05-07 08:28 40.36795 -101.55228 38037 ft 387 kts 264°
2026-05-07 08:29 40.34863 -101.68984 38051 ft 382 kts 264°
2026-05-07 08:29 40.32911 -101.82772 38069 ft 390 kts 264°
2026-05-07 08:30 40.30889 -101.96942 38065 ft 399 kts 264°
2026-05-07 08:30 40.28832 -102.11177 38051 ft 393 kts 264°
2026-05-07 08:31 40.26830 -102.24915 38062 ft 382 kts 264°
2026-05-07 08:31 40.24808 -102.38716 38088 ft 388 kts 264°
2026-05-07 08:32 40.22738 -102.52713 38077 ft 400 kts 263°
2026-05-07 08:32 40.20592 -102.67044 38051 ft 399 kts 263°
2026-05-07 08:33 40.18483 -102.81009 38054 ft 387 kts 264°
2026-05-07 08:33 40.16384 -102.94834 38075 ft 389 kts 264°
2026-05-07 08:34 40.14229 -103.08934 38078 ft 402 kts 264°
2026-05-07 08:34 40.11988 -103.23390 38052 ft 406 kts 264°
2026-05-07 08:35 40.09763 -103.37635 38053 ft 395 kts 264°
2026-05-07 08:35 40.07568 -103.51590 38069 ft 392 kts 264°
2026-05-07 08:36 40.05341 -103.65678 38090 ft 403 kts 263°
2026-05-07 08:36 40.03020 -103.80193 38075 ft 411 kts 263°
2026-05-07 08:37 40.00689 -103.94612 38066 ft 403 kts 263°
2026-05-07 08:37 39.98399 -104.08685 38088 ft 393 kts 263°
2026-05-07 08:38 39.96104 -104.22715 38115 ft 400 kts 263°
2026-05-07 08:38 39.93722 -104.37137 38109 ft 411 kts 263°
2026-05-07 08:39 39.91302 -104.51642 38093 ft 406 kts 263°
2026-05-07 08:39 39.89305 -104.63509 38093 ft 396 kts 262°
2026-05-07 08:40 39.86659 -104.77393 38114 ft 397 kts 261°
2026-05-07 08:40 39.83932 -104.91523 38113 ft 408 kts 261°
2026-05-07 08:41 39.81138 -105.05967 38101 ft 412 kts 261°
2026-05-07 08:41 39.78359 -105.20216 38082 ft 399 kts 261°
2026-05-07 08:42 39.75642 -105.34083 38115 ft 396 kts 261°
2026-05-07 08:42 39.72879 -105.48111 38190 ft 407 kts 261°
2026-05-07 08:43 39.70023 -105.62471 38222 ft 412 kts 261°
2026-05-07 08:43 39.67544 -105.74825 38222 ft 399 kts 261°
2026-05-07 08:44 39.65187 -105.86549 38245 ft 394 kts 261°
2026-05-07 08:44 39.62394 -106.00364 38304 ft 399 kts 261°
2026-05-07 08:45 39.59507 -106.14537 38311 ft 411 kts 260°
2026-05-07 08:45 39.56564 -106.28862 38310 ft 409 kts 260°
2026-05-07 08:46 39.53669 -106.42859 38307 ft 396 kts 260°
2026-05-07 08:46 39.50817 -106.56598 38331 ft 398 kts 260°
2026-05-07 08:47 39.47880 -106.70635 38329 ft 410 kts 259°
2026-05-07 08:47 39.44864 -106.84941 38308 ft 411 kts 259°
2026-05-07 08:48 39.42560 -106.95203 38295 ft 399 kts 257°
2026-05-07 08:48 39.39099 -107.08783 38333 ft 398 kts 257°
2026-05-07 08:49 39.35640 -107.22489 38335 ft 410 kts 257°
2026-05-07 08:49 39.32070 -107.36601 38332 ft 413 kts 256°
2026-05-07 08:50 39.28538 -107.50468 38304 ft 398 kts 256°
2026-05-07 08:50 39.25082 -107.63998 38324 ft 399 kts 256°
2026-05-07 08:51 39.21547 -107.77766 38323 ft 410 kts 256°
2026-05-07 08:51 39.17911 -107.91818 38276 ft 412 kts 256°
2026-05-07 08:52 39.14330 -108.05576 38270 ft 398 kts 256°
2026-05-07 08:52 39.10804 -108.19068 38281 ft 401 kts 256°
2026-05-07 08:53 39.07182 -108.32870 38261 ft 412 kts 256°
2026-05-07 08:53 39.03476 -108.46883 38229 ft 412 kts 255°
2026-05-07 08:54 39.00077 -108.59657 38223 ft 400 kts 256°
2026-05-07 08:54 38.96482 -108.73127 38268 ft 400 kts 255°
2026-05-07 08:55 38.92801 -108.86850 38271 ft 411 kts 255°
2026-05-07 08:55 38.89023 -109.00836 38271 ft 415 kts 255°
2026-05-07 08:56 38.85278 -109.14604 38247 ft 402 kts 255°
2026-05-07 08:56 38.81612 -109.28053 38260 ft 400 kts 255°
2026-05-07 08:57 38.77875 -109.41698 38252 ft 412 kts 255°
2026-05-07 08:57 38.74022 -109.55654 38220 ft 416 kts 255°
2026-05-07 08:58 38.70201 -109.69416 38200 ft 404 kts 255°
2026-05-07 08:58 38.66455 -109.82859 38215 ft 401 kts 255°
2026-05-07 08:59 38.62657 -109.96430 38243 ft 411 kts 255°
2026-05-07 08:59 38.58739 -110.10335 38223 ft 418 kts 255°
2026-05-07 09:00 38.54835 -110.24108 38221 ft 405 kts 254°
2026-05-07 09:00 38.51035 -110.37467 38251 ft 401 kts 255°
2026-05-07 09:01 38.47147 -110.51073 38264 ft 413 kts 254°
2026-05-07 09:01 38.43160 -110.64939 38254 ft 417 kts 254°
2026-05-07 09:02 38.40431 -110.72275 38233 ft 415 kts 238°
2026-05-07 09:02 38.34348 -110.82258 38247 ft 414 kts 237°
2026-05-07 09:03 38.27298 -110.93793 38251 ft 412 kts 237°
2026-05-07 09:03 38.20285 -111.05325 38251 ft 412 kts 237°
2026-05-07 09:04 38.13245 -111.16864 38252 ft 413 kts 237°
2026-05-07 09:04 38.06173 -111.28414 38259 ft 415 kts 237°
2026-05-07 09:05 37.99070 -111.39972 38267 ft 416 kts 236°
2026-05-07 09:05 37.91917 -111.51570 38262 ft 418 kts 236°
2026-05-07 09:06 37.84731 -111.63179 38267 ft 419 kts 236°
2026-05-07 09:06 37.77537 -111.74763 38297 ft 420 kts 236°
2026-05-07 09:07 37.70286 -111.86396 38300 ft 421 kts 236°
2026-05-07 09:07 37.63031 -111.97996 38312 ft 421 kts 236°
2026-05-07 09:08 37.55750 -112.09600 38286 ft 422 kts 236°
2026-05-07 09:08 37.51411 -112.16819 38303 ft 419 kts 240°
2026-05-07 09:09 37.45664 -112.28182 38303 ft 419 kts 241°
2026-05-07 09:09 37.39315 -112.40495 38294 ft 420 kts 240°
2026-05-07 09:10 37.32913 -112.52775 38272 ft 420 kts 240°
2026-05-07 09:10 37.26495 -112.65049 38263 ft 420 kts 240°
2026-05-07 09:11 37.23599 -112.70572 37574 ft 420 kts 240°
2026-05-07 09:11 37.20938 -112.75633 36709 ft 418 kts 240°
2026-05-07 09:11 37.17695 -112.81792 35736 ft 416 kts 240°
2026-05-07 09:11 37.14524 -112.87802 34902 ft 411 kts 240°
2026-05-07 09:12 37.12890 -112.90896 34473 ft 409 kts 240°
2026-05-07 09:12 37.11324 -112.93861 34071 ft 407 kts 240°
2026-05-07 09:12 37.09761 -112.96819 33654 ft 406 kts 240°
2026-05-07 09:12 37.08206 -112.99757 33259 ft 404 kts 239°
2026-05-07 09:13 37.06127 -113.03679 32713 ft 403 kts 239°
2026-05-07 09:13 37.03039 -113.09500 31911 ft 399 kts 239°
2026-05-07 09:13 36.99992 -113.15233 31131 ft 395 kts 239°
2026-05-07 09:13 36.96960 -113.20928 30356 ft 391 kts 239°
2026-05-07 09:14 36.93953 -113.26566 29555 ft 387 kts 239°
2026-05-07 09:14 36.90977 -113.32139 28749 ft 383 kts 239°
2026-05-07 09:14 36.88027 -113.37654 27935 ft 379 kts 239°
2026-05-07 09:14 36.85112 -113.43097 27133 ft 375 kts 239°
2026-05-07 09:15 36.83192 -113.46674 26604 ft 373 kts 239°
2026-05-07 09:15 36.81080 -113.50605 26019 ft 371 kts 239°
2026-05-07 09:15 36.78265 -113.55851 25251 ft 367 kts 239°
2026-05-07 09:15 36.75438 -113.61117 24472 ft 363 kts 239°
2026-05-07 09:16 36.72645 -113.66315 23718 ft 359 kts 238°
2026-05-07 09:16 36.69878 -113.71457 22951 ft 356 kts 238°
2026-05-07 09:16 36.67131 -113.76553 22191 ft 352 kts 238°
2026-05-07 09:16 36.64404 -113.81604 21457 ft 349 kts 238°
2026-05-07 09:17 36.61716 -113.86579 20724 ft 345 kts 238°
2026-05-07 09:17 36.59304 -113.91033 20062 ft 342 kts 238°
2026-05-07 09:17 36.57939 -113.93450 19703 ft 341 kts 235°
2026-05-07 09:17 36.55215 -113.97832 19024 ft 338 kts 233°
2026-05-07 09:18 36.52366 -114.02358 18311 ft 335 kts 233°
2026-05-07 09:18 36.49528 -114.06902 17607 ft 332 kts 234°
2026-05-07 09:18 36.46715 -114.11423 16888 ft 329 kts 234°
2026-05-07 09:18 36.43931 -114.15897 16159 ft 326 kts 234°
2026-05-07 09:19 36.42501 -114.18194 15752 ft 326 kts 234°
2026-05-07 09:19 36.41115 -114.20416 15389 ft 325 kts 233°
2026-05-07 09:19 36.39735 -114.22625 15029 ft 323 kts 233°
2026-05-07 09:19 36.37264 -114.26531 14394 ft 320 kts 233°
2026-05-07 09:20 36.34525 -114.30817 13770 ft 314 kts 233°
2026-05-07 09:20 36.31834 -114.35031 13145 ft 308 kts 233°
2026-05-07 09:20 36.29188 -114.39176 12498 ft 304 kts 233°
2026-05-07 09:20 36.26565 -114.43276 11836 ft 303 kts 233°
2026-05-07 09:21 36.24781 -114.46061 11385 ft 301 kts 233°
2026-05-07 09:21 36.22510 -114.49616 10806 ft 298 kts 232°
2026-05-07 09:21 36.21217 -114.51615 10486 ft 296 kts 231°
2026-05-07 09:21 36.19914 -114.53576 10186 ft 294 kts 230°
2026-05-07 09:22 36.18597 -114.55455 9899 ft 284 kts 228°
2026-05-07 09:22 36.17283 -114.57248 9499 ft 282 kts 227°
2026-05-07 09:22 36.15947 -114.59076 8916 ft 291 kts 228°
2026-05-07 09:22 36.14583 -114.60953 8430 ft 292 kts 227°
2026-05-07 09:23 36.13253 -114.62736 8252 ft 278 kts 226°
2026-05-07 09:23 36.11911 -114.64438 8145 ft 270 kts 223°
2026-05-07 09:23 36.10544 -114.65995 7782 ft 266 kts 219°
2026-05-07 09:23 36.09087 -114.67417 7048 ft 275 kts 215°
2026-05-07 09:24 36.07468 -114.68745 6346 ft 281 kts 210°
2026-05-07 09:24 36.05776 -114.69938 6058 ft 269 kts 207°
2026-05-07 09:24 36.04149 -114.70962 5810 ft 258 kts 205°
2026-05-07 09:24 36.02537 -114.71920 5306 ft 258 kts 205°
2026-05-07 09:25 36.00979 -114.72972 5188 ft 246 kts 216°
2026-05-07 09:25 35.99785 -114.74440 5045 ft 244 kts 234°
2026-05-07 09:25 35.99093 -114.76268 5043 ft 234 kts 256°
2026-05-07 09:25 35.98964 -114.78237 5030 ft 229 kts 277°
2026-05-07 09:26 35.99396 -114.80103 4914 ft 228 kts 298°
2026-05-07 09:26 36.00351 -114.81651 4833 ft 227 kts 320°
2026-05-07 09:26 36.01617 -114.82803 4791 ft 225 kts 326°
2026-05-07 09:26 36.02872 -114.83893 4775 ft 216 kts 324°
2026-05-07 09:27 36.03978 -114.85068 4780 ft 204 kts 317°
2026-05-07 09:27 36.04927 -114.86304 4786 ft 192 kts 311°
2026-05-07 09:27 36.06313 -114.88884 4760 ft 169 kts 298°
2026-05-07 09:28 36.06762 -114.90256 4781 ft 174 kts 289°
2026-05-07 09:28 36.07045 -114.91698 4777 ft 172 kts 282°
2026-05-07 09:28 36.07216 -114.93157 4759 ft 169 kts 277°
2026-05-07 09:28 36.07298 -114.94564 4766 ft 161 kts 273°
2026-05-07 09:29 36.07358 -114.95941 4704 ft 163 kts 275°
2026-05-07 09:29 36.07444 -114.97356 4459 ft 162 kts 274°
2026-05-07 09:29 36.07499 -114.98680 4253 ft 149 kts 272°
2026-05-07 09:29 36.07531 -114.99944 4081 ft 148 kts 271°
2026-05-07 09:30 36.07566 -115.01228 3883 ft 150 kts 275°
2026-05-07 09:30 36.07636 -115.02521 3678 ft 150 kts 272°
2026-05-07 09:30 36.07649 -115.03799 3478 ft 148 kts 270°
2026-05-07 09:30 36.07651 -115.05067 3285 ft 147 kts 270°
2026-05-07 09:31 36.07649 -115.06329 3089 ft 146 kts 270°
2026-05-07 09:31 36.07646 -115.07593 2896 ft 149 kts 271°
2026-05-07 09:31 36.07644 -115.08873 2706 ft 148 kts 271°
2026-05-07 09:31 36.07643 -115.10125 2497 ft 144 kts 271°
2026-05-07 09:32 36.07642 -115.11346 2318 ft 142 kts 271°
2026-05-07 09:32 36.07639 -115.12580 2099 ft 142 kts 271°
2026-05-07 09:32 36.07645 -115.13689 2093 ft 115 kts 271°
2026-05-07 09:32 36.07629 -115.14439 2120 ft 55 kts 270°
2026-05-07 09:33 36.07628 -115.14713 2133 ft 0 kts 270°
2026-05-07 09:33 36.07628 -115.14729 2133 ft 5 kts 273°
2026-05-07 09:33 36.07633 -115.14792 2135 ft 11 kts 277°
2026-05-07 09:33 36.07643 -115.14890 2138 ft 11 kts 277°
2026-05-07 09:34 36.07658 -115.14983 2140 ft 11 kts 288°
2026-05-07 09:34 36.07686 -115.15071 2146 ft 11 kts 303°
2026-05-07 09:34 36.07759 -115.15101 2147 ft 13 kts 19°
2026-05-07 09:34 36.07797 -115.14987 2144 ft 18 kts 93°
2026-05-07 09:35 36.07812 -115.14833 2137 ft 20 kts 56°
2026-05-07 09:35 36.07850 -115.14665 2128 ft 23 kts 98°
2026-05-07 09:35 36.07846 -115.14517 2119 ft 14 kts 60°
2026-05-07 09:35 36.07925 -115.14485 2116 ft 13 kts
2026-05-07 09:36 36.08019 -115.14487 2114 ft 14 kts 358°
2026-05-07 09:36 36.08102 -115.14491 2113 ft 11 kts 39°
2026-05-07 09:36 36.08122 -115.14438 2110 ft 0 kts 73°
2026-05-07 09:38 36.08118 -115.14443 2110 ft 0 kts 64°